Regional Weather Roundup
Issued by NWS Charleston, SC

Current Version | Previous Version | Graphics & Text | Print | Product List | Glossary On
Versions: 1 2 3 4 5 6 7 8 9 10 11 12 13 14 15 16 17 18 19 20 21 22 23 24 25 26 27 28 29 30 31 32 33 34 35 36 37 38 39 40 41 42 43 44 45 46 47 48 49 50
000
ASUS42 KCHS 260412
RWRCHS

REGIONAL WEATHER ROUNDUP
NATIONAL WEATHER SERVICE CHARLESTON SC
1200 AM EDT FRI MAY 26 2017

NOTE: "FAIR" INDICATES FEW OR NO CLOUDS BELOW 12,000 FEET WITH NO
SIGNIFICANT WEATHER AND/OR OBSTRUCTIONS TO VISIBILITY.

NOT ALL STATIONS ARE QUALITY CONTROLLED. USE DATA WITH CAUTION...
ESPECIALLY DEWPOINT OBSERVATIONS.

SCZ027-030-031-034>040-042>050-260500-
...SOUTHEAST SOUTH CAROLINA...

CITY           SKY/WX    TMP DP  RH WIND       PRES   REMARKS
N CHARLESTON   CLEAR     65  52  62 SW8       29.90R
WATERFRONT PRK   N/A     69  58  68 VRB3      29.89R
JOHNS ISLAND   FAIR      66  55  68 SW5       29.90S
PINOPOLIS        N/A     68  57  68 SW9       29.79R
MONCKS CORNER  NOT AVBL
SUMMERVILLE    FAIR      63  54  72 S3        29.90R
BEAUFORT MCAS  CLEAR     66  59  78 SW6       29.91R
BEAUFORT ARPT  FAIR      68  55  64 SW5       29.91S
HILTON HEAD IS CLEAR     68  55  64 SW5       29.93R
WALTERBORO     NOT AVBL
ALLENDALE      FAIR      63  54  72 CALM      29.89R

...SOUTHERN MIDLANDS AND PEE DEE...

CITY           SKY/WX    TMP DP  RH WIND       PRES   REMARKS
GEORGETOWN     FAIR      63  54  72 SW8       29.88S
KINGSTREE      FAIR      61  54  77 CALM      29.86S
ORANGEBURG     CLEAR     61  54  77 S8        29.88R
BARNWELL       FAIR      63  55  77 CALM      29.90R
AIKEN          FAIR      59  52  77 CALM      29.92R
MANNING        FAIR      64  55  72 SW20      29.87R
COLUMBIA       CLEAR     63  53  70 SW7       29.85R
SUMTER         CLEAR     63  53  68 SW10      29.84R
FLORENCE       CLEAR     64  54  69 SW10      29.84R
MYRTLE BEACH   CLEAR     67  54  63 SW8       29.87R
N MYRTLE BEACH CLEAR     68  55  63 SW12      29.85R

$$

GAZ063-065-086>088-099>101-113>116-118-119-134>141-150-260500-
...SOUTHEAST GEORGIA...

CITY           SKY/WX    TMP DP  RH WIND       PRES   REMARKS
SAVANNAH ARPT  CLEAR     66  53  63 SW6       29.93R
HUNTER AAF     CLEAR     64  59  81 CALM      29.91R
FORT STEWART   CLEAR     59  55  87 CALM      29.92R
STATESBORO     CLEAR     60  60 100 CALM      29.92S
SYLVANIA       CLEAR     63  57  81 SW3       29.93R
CLAXTON        FAIR     N/A N/A N/A CALM      29.93R

...CSRA...CENTRAL AND FAR SOUTHEAST GEORGIA...

CITY           SKY/WX    TMP DP  RH WIND       PRES   REMARKS
THOMSON        CLEAR     57  55  92 W6        29.95R
AUGUSTA-BUSH   CLEAR     65  54  67 SW8       29.89R
AUGUSTA-DANIEL CLEAR     64  51  62 CALM      29.90R
SWAINSBORO     FAIR      61  55  82 CALM      29.94R
VIDALIA        CLEAR     63  55  77 CALM      29.94R
EASTMAN        FAIR      60  49  68 CALM      29.97R
HAZLEHURST     FAIR      62  60  93 CALM      29.94R
ALMA           CLEAR     58  55  90 CALM      29.94R
WAYCROSS       CLEAR     63  61  93 CALM      29.95R
JESUP          FAIR      59  54  82 CALM      29.95R
BAXLEY         FAIR      61  61 100 CALM      29.94R
BRUNSWICK      CLEAR     63  57  82 W3        29.95R
SAINT SIMONS   CLEAR     70  54  56 W3        29.94R

$$

SCZ027-028-034-036>038-045-046-048>050-GAZ119-141-260500-
...LAKE AND SUPPLEMENTAL COASTAL OBSERVATIONS...

STATION/POSITION TIME  TEMP    WIND        PRES    WAVE   SWELL
                       AIR SEA DIR/SP/G            HT/PER HT/PER/DIR
                 (UTC) (F)     (DEG/KT/KT) (MB)    (FT/S) (FT/S/D)
WINYAH BAY       0245   69     240/  9     1011.0
LAKE MURRAY      0320   69     250/ 11/ 15 1009.8
ACE BASIN NERRS  0245   69     240/  1     1012.0
FORT PULASKI     0348   70     250/  4/  5 1013.7R
SAPELO ISLAND    0300   74     250/  6     1013.0

$$

ANZ835-935-AMZ111-154-330-350-352-354-370-450-454-472-260500-
...C-MAN AND BUOY OBSERVATIONS...

STATION/POSITION TIME  TEMP    WIND        PRES    WAVE   SWELL
                       AIR SEA DIR/SP/G            HT/PER HT/PER/DIR
                 (UTC) (F)     (DEG/KT/KT) (MB)    (FT/S) (FT/S/D)
BUOY 41004       0350   74 75  260/ 17/ 23 1012.1R   6/ 7   2/160/ 8
BUOY 41008       0250   76 77  260/ 14/ 16 1012.6    2/ 3   2/110/ 8
FOLLY BEACH CMAN 0300   71     240/  7/ 10 1012.6R
CAPERS NEARSHORE 0308   79 76  260/ 17/ 23 1011.4R
FRIPP NEARSHORE  0308   75 77  250/ 16/ 19 1012.1R


STATION/POSITION TIME  TEMP    WIND        PRES    WAVE   SWELL
                       AIR SEA DIR/SP/G            HT/PER HT/PER/DIR
                 (UTC) (F)     (DEG/KT/KT) (MB)    (FT/S) (FT/S/D)
5E ST. MARYS GA  0330      78                N/A     2/ 6
FRYING PAN BUOY  0350   74 75  250/ 23/ 29 1010.8R   8/ 8   3/190/ 9
BUOY 41025       0350   74 78  250/ 27/ 33 1006.6R   9/ 9   5/190/ 9
CAPE LOOKOUT NC  0300   72     250/ 22/ 28 1007.5R
BUOY 41002       0250   76 77  250/ 23/ 29 1011.6   10/ 8
BUOY 41010       0350   79 78  210/  2/  4 1013.9R   5/ 7   5/330/ 7
ST AUGUSTINE FL  0400   69 76  260/  7/  9 1015.4R


$$




USA.gov is the U.S. government's official web portal to all federal, state and local government web resources and services.